Location: Newark
(48.4472°N, 1.4892°E)
Time: 07:24:50
(UTC+00:00)

Transit 4A - Pass Details

Date: 30 November 2019
Orbit: 870 x 975 km, 66.8° (Epoch: 08 December)

Event Time Altitude Azimuth Distance (km) Brightness Sun altitude
Rises 18:36:02 0° 190° (S) 3,623 11.2 -24.7°
Reaches altitude 10° 18:38:43 10° 184° (S) 2,668 10.4 -25.2°
Enters shadow 18:42:50 35° 152° (SSE) 1,464 8.7 -25.9°
